Hourly Data Report for September 28, 2017

All times are specified in Local Standard Time (LST). Add 1 hour to adjust for Daylight Saving Time where and when it is observed.

SAINT JOHN A
NEW BRUNSWICK

45°18'58.000" N
65°53'24.000" W
108.80 m
8104901
71609
YSJ

Download Data

Hourly Data (September 2017)
Hourly Data Report for September 28, 2017
Temp Definition
°C
Dew Point Temp Definition
°C
Rel Hum Definition
%
Wind Dir Definition
10's deg

Wind Spd Definition
km/h
Visibility Definition
km
Stn Press Definition
kPa
Hmdx Definition


Wind Chill Definition


Weather Definition


TIME
00:00 Legend Double Dagger 16.4 16.3 99 19 18 1.0 99.35     Fog
01:00 Legend Double Dagger 16.4 16.3 99 17 8 1.0 99.33     Drizzle
02:00 Legend Double Dagger 16.7 16.6 100 21 12 0.6 99.26     Drizzle,Fog
03:00 Legend Double Dagger 17.4 17.4 99 22 19 0.6 99.13     Drizzle,Fog
04:00 Legend Double Dagger 17.2 17.1 99 22 15 0.8 99.11     Drizzle,Fog
05:00 Legend Double Dagger 16.9 16.8 99 25 11 1.0 98.99     Rain Showers,Fog
06:00 Legend Double Dagger 17.5 17.4 99 21 6 1.2 99.02     Fog
07:00 Legend Double Dagger 17.3 17.2 99 25 6 0.8 98.97     Fog
08:00 Legend Double Dagger 17.5 17.3 99 21 5 8.1 98.99     Fog
09:00 Legend Double Dagger 18.7 18.3 98 20 8 12.9 99.03     LegendNANA
10:00 Legend Double Dagger 20.1 16.9 81 32 16 24.1 99.05 25   LegendNANA
11:00 Legend Double Dagger 19.5 10.5 55 32 26 24.1 99.13     Cloudy
12:00 Legend Double Dagger 21.0 10.2 50 32 23 24.1 99.08     LegendNANA
13:00 Legend Double Dagger 19.7 8.4 48 29 22 24.1 99.06     LegendNANA
14:00 Legend Double Dagger 20.9 10.3 50 33 19 24.1 99.04     Mostly Cloudy
15:00 Legend Double Dagger 21.2 10.1 49 32 17 24.1 99.03     LegendNANA
16:00 Legend Double Dagger 19.9 8.4 47 34 24 24.1 99.08     LegendNANA
17:00 Legend Double Dagger 18.9 8.2 50 35 22 24.1 99.09     Mainly Clear
18:00 Legend Double Dagger 16.1 7.2 55 33 27 24.1 99.15     LegendNANA
19:00 Legend Double Dagger 14.2 7.6 64 33 22 24.1 99.22     LegendNANA
20:00 Legend Double Dagger 12.3 6.5 68 33 13 24.1 99.31     Mainly Clear
21:00 Legend Double Dagger 11.8 5.2 64 33 20 24.1 99.34     LegendNANA
22:00 Legend Double Dagger 11.2 4.2 62 33 28 24.1 99.39     LegendNANA
23:00 Legend Double Dagger 10.2 3.3 62 33 26 24.1 99.43     Clear

Notes on Data Quality.

Legend

  • E = Estimated
  • M = Missing
  • NA = Not Available
  • ‡ = Partner data that is not subject to review by the National Climate Archives
Date modified: